HAIYANG-2B (43655 NORAD) Tracking and Keplerian Element Data

This shows tracking and keplerian element data for the satellite.

Feedback or suggestion? Click here.




ElementValue
Catalog43655
NameHAIYANG-2B
Epoch Orbit36026
Epoch Day354.28250936
Epoch Year2025
RAAN0.7169
Inclination99.332
Eccentricity0.0001819
Argument of Perigee58.8908
Mean Anonmoly301.2422
Mean Motion13.79309241
Decay Rate7.2E-07
L11 43655U 18081A 25354.28250936 .00000072 00000+0 11298-3 0 9997
L22 43655 99.3320 0.7169 0001819 58.8908 301.2422 13.79309241360261



Live tracking and technical data element details for HAIYANG-2B (NORAD 43655). HAIYANG-2B can be tracked NOW for your location showing map with azimuth and elevation plus other details from your city location.







IsCatalogInMostPopularTable: catalog: 43655, numindb: 374
Update: records affected: 1



GetName: 43655 HAIYANG-2B

Hit Count: updated at: Sat, 14 Mar 2026 03:04:58 GMT